CW5834 Weather Reports


time (UTC)temp
F
wind
direction
speed
knots
gust
knots
rain 1hr
in
rain 24hr
in
rain mn
in
humidity
%
barometer
mb
20260510081557 48 0.0 1.7 0.00 0.00 0.00 93 1015.6
20260510080517 48 0.0 0.0 0.00 0.00 0.00 92 1015.3
20260510075516 49 0.0 0.0 0.00 0.00 0.00 93 1015.1
20260510074517 49 0.0 0.0 0.00 0.00 0.00 93 1015.1
20260510073536 49 0.0 0.0 0.00 0.00 0.00 92 1015.1
20260510072516 49 0.0 0.0 0.00 0.00 0.00 93 1014.9
20260510071556 49 0.0 0.0 0.00 0.00 0.00 93 1015.0
20260510070516 49 0.0 0.0 0.00 0.00 0.00 92 1014.8
20260510065516 49 0.0 0.0 0.00 0.00 0.00 92 1014.7
20260510064516 50 0.0 0.0 0.00 0.00 0.00 92 1014.8
20260510063516 50 0.0 0.0 0.00 0.00 0.00 91 1014.7
20260510062516 50 0.0 1.7 0.00 0.00 0.00 92 1014.9
20260510061536 50 0.0 0.0 0.00 0.00 0.00 92 1015.0
20260510060517 50 0.0 0.9 0.00 0.00 0.00 91 1015.0
20260510055516 50 0.0 0.0 0.00 0.00 0.00 91 1015.0
20260510054536 51 0.0 1.7 0.00 0.00 0.00 91 1015.0
20260510053516 51 0.0 0.0 0.00 0.00 0.00 90 1014.9
20260510052516 51 0.0 0.0 0.00 0.00 0.00 90 1014.9
20260510051516 52 0.0 0.0 0.00 0.00 0.00 89 1014.9
20260510050516 52 0.0 0.0 0.00 0.00 0.00 89 1014.9
20260510045516 52 0.0 0.0 0.00 0.00 0.00 89 1014.9
20260510044516 52 0.0 1.7 0.00 0.00 0.00 87 1014.8
20260510043516 53 0.0 0.0 0.00 0.00 0.00 86 1014.8
20260510042536 54 0.0 0.0 0.00 0.00 0.00 87 1014.8
20260510041526 54 0.0 0.0 0.00 0.00 0.00 87 1014.7
20260510040516 54 0.0 1.7 0.00 0.00 0.00 87 1014.6
20260510035517 54 0.0 1.7 0.00 0.00 0.00 84 1014.7
20260510034537 54 0.0 1.7 0.00 0.00 0.00 84 1014.5
20260510033517 55 0.0 0.0 0.00 0.00 0.00 84 1014.5
20260510032537 55 0.0 0.0 0.00 0.00 0.00 84 1014.5
20260510031517 55 0.0 0.0 0.00 0.00 0.00 83 1014.6
20260510030537 56 0.0 0.0 0.00 0.00 0.00 82 1014.6
20260510025517 56 0.0 1.7 0.00 0.00 0.00 82 1014.5
20260510024518 57 0.0 1.7 0.00 0.00 0.00 81 1014.4
20260510023517 57 0.0 1.7 0.00 0.00 0.00 80 1014.3
20260510022517 58 0.0 0.9 0.00 0.00 0.00 81 1014.1
20260510021517 58 0.0 0.0 0.00 0.00 0.00 79 1013.9
20260510020517 59 0 0.9 0.9 0.00 0.00 0.00 78 1013.7
20260510015517 59 0.0 1.7 0.00 0.00 0.00 77 1013.6
20260510014517 60 338 0.9 0.9 0.00 0.00 0.00 75 1013.5
20260510013517 61 0.0 1.7 0.00 0.00 0.00 74 1013.4
20260510012517 61 0.0 1.7 0.00 0.00 0.00 73 1013.1
20260510011517 62 0.0 0.0 0.00 0.00 0.00 72 1013.1
20260510010517 63 0.0 1.7 0.00 0.00 0.00 70 1013.1
20260510005517 64 0.0 1.7 0.00 0.00 0.00 68 1013.0
20260510004517 65 0.0 1.7 0.00 0.00 0.00 66 1012.7
20260510003517 65 0.0 0.9 0.00 0.00 0.00 66 1012.6
20260510002517 67 293 0.9 0.9 0.00 0.00 0.00 65 1012.5
20260510001517 68 0.0 0.9 0.00 0.00 0.00 63 1012.2
20260510000517 69 0.0 0.9 0.00 0.00 0.00 61 1012.1
20260509235516 70 338 0.9 1.7 0.00 0.00 0.00 58 1012.0
20260509234537 71 338 1.7 4.3 0.00 0.00 0.00 55 1011.7
20260509233516 72 293 0.9 1.7 0.00 0.00 0.00 53 1011.8
20260509232516 72 315 1.7 4.3 0.00 0.00 0.00 50 1012.0
20260509231536 74 225 0.9 3.5 0.00 0.00 0.00 50 1012.1
20260509230517 75 338 0.9 2.6 0.00 0.00 0.00 51 1011.9
20260509225516 75 338 0.9 2.6 0.00 0.00 0.00 54 1011.8
20260509224516 74 315 1.7 5.2 0.00 0.00 0.00 51 1011.9
20260509223516 74 225 3.5 7.8 0.00 0.00 0.00 51 1012.1
20260509222516 74 0.0 1.7 0.00 0.00 0.00 54 1012.0
20260509221516 72 0.0 1.7 0.00 0.00 0.00 55 1011.8
20260509220516 73 293 0.9 2.6 0.00 0.00 0.00 56 1011.8
20260509215516 73 270 0.9 2.6 0.00 0.00 0.00 55 1011.7
20260509214516 75 225 1.7 3.5 0.00 0.00 0.00 52 1011.7
20260509213536 75 225 0.9 5.2 0.00 0.00 0.00 55 1011.7
20260509212601 74 225 2.6 6.1 0.00 0.00 0.00 53 1011.5
20260509211516 74 248 1.7 5.2 0.00 0.00 0.00 52 1011.5
20260509210556 75 293 1.7 6.1 0.00 0.00 0.00 54 1011.5
20260509205516 73 225 1.7 7.0 0.00 0.00 0.00 57 1011.7
20260509204516 73 270 1.7 7.0 0.00 0.00 0.00 55 1011.8
20260509203556 73 270 1.7 6.1 0.00 0.00 0.00 53 1011.9
20260509202516 75 315 1.7 4.3 0.00 0.00 0.00 53 1011.9
20260509201516 74 225 1.7 7.8 0.00 0.00 0.00 52 1012.1
20260509200516 73 293 1.7 6.1 0.00 0.00 0.00 52 1011.8
20260509195516 74 248 2.6 6.1 0.00 0.00 0.00 53 1011.9
20260509194516 73 225 0.9 2.6 0.00 0.00 0.00 55 1012.1
20260509193517 73 315 2.6 7.0 0.00 0.00 0.00 55 1011.8
20260509192516 74 203 2.6 6.1 0.00 0.00 0.00 53 1012.0
20260509191556 74 338 2.6 7.0 0.00 0.00 0.00 55 1012.1
20260509190516 72 203 2.6 9.6 0.00 0.00 0.00 55 1011.9
20260509185556 72 0 0.9 3.5 0.00 0.00 0.00 59 1011.9
20260509184536 73 225 2.6 7.8 0.00 0.00 0.00 55 1011.6
20260509183536 71 203 1.7 3.5 0.00 0.00 0.00 59 1011.5
20260509182516 70 225 1.7 6.1 0.00 0.00 0.00 59 1011.5
20260509181516 71 225 2.6 7.0 0.00 0.00 0.00 60 1011.6
20260509180516 70 225 1.7 4.3 0.00 0.00 0.00 59 1011.8
20260509175516 71 225 1.7 6.1 0.00 0.00 0.00 61 1011.9
20260509174536 71 293 2.6 7.0 0.00 0.00 0.00 59 1012.0
20260509173515 70 203 3.5 7.0 0.00 0.00 0.00 59 1012.0
20260509172516 70 203 3.5 6.1 0.00 0.00 0.00 64 1012.1
20260509171516 69 203 2.6 5.2 0.00 0.00 0.00 61 1012.2
20260509170515 68 225 4.3 10.4 0.00 0.00 0.00 62 1012.3
20260509165516 69 225 2.6 7.8 0.00 0.00 0.00 61 1012.5
20260509164516 68 203 2.6 6.1 0.00 0.00 0.00 65 1012.5
20260509163536 68 248 2.6 7.8 0.00 0.00 0.00 64 1012.4
20260509162536 67 225 4.3 7.8 0.00 0.00 0.00 65 1012.3
20260509161516 67 180 2.6 7.8 0.00 0.00 0.00 65 1012.5
20260509160515 66 203 2.6 7.0 0.00 0.00 0.00 67 1012.3
20260509155515 66 225 4.3 7.8 0.00 0.00 0.00 68 1012.4
20260509154515 64 203 3.5 8.7 0.00 0.00 0.00 70 1012.5
20260509153515 63 203 2.6 7.0 0.00 0.00 0.00 76 1012.6
20260509152515 62 225 2.6 7.0 0.00 0.00 0.00 76 1012.8
20260509151515 63 203 2.6 6.1 0.00 0.00 0.00 75 1012.6
20260509150535 63 225 3.5 9.6 0.00 0.00 0.00 73 1012.6
20260509145515 63 203 3.5 10.4 0.00 0.00 0.00 75 1012.5
20260509144517 62 225 4.3 9.6 0.00 0.00 0.00 76 1012.2
20260509143517 62 225 3.5 7.0 0.00 0.00 0.00 78 1012.2
20260509142558 62 203 3.5 8.7 0.00 0.00 0.00 76 1011.9
20260509141517 61 203 3.5 8.7 0.00 0.00 0.00 78 1011.8
20260509140535 60 203 2.6 7.0 0.00 0.00 0.00 79 1012.0
20260509135517 59 203 2.6 7.8 0.00 0.00 0.00 80 1012.2
20260509134522 58 248 1.7 6.1 0.00 0.00 0.00 80 1012.4
20260509133537 58 248 1.7 4.3 0.00 0.00 0.00 81 1012.2
20260509132517 58 225 1.7 6.1 0.00 0.00 0.00 80 1012.6
20260509131537 58 203 1.7 4.3 0.00 0.00 0.00 80 1012.4
20260509130517 59 270 0.9 4.3 0.00 0.00 0.00 80 1012.1
20260509125537 58 225 1.7 4.3 0.00 0.00 0.00 82 1012.2
20260509124517 57 203 1.7 4.3 0.00 0.00 0.00 82 1012.3
20260509123517 57 248 1.7 3.5 0.00 0.00 0.00 82 1012.5
20260509122517 56 225 0.9 3.5 0.00 0.00 0.00 83 1012.1
20260509121517 54 248 0.9 2.6 0.00 0.00 0.00 84 1012.2
20260509120517 54 248 0.9 3.5 0.00 0.00 0.00 86 1012.2
20260509115537 53 0.0 1.7 0.00 0.00 0.00 87 1012.5
20260509114517 52 293 0.9 1.7 0.00 0.00 0.00 89 1012.5
20260509113517 51 0.0 2.6 0.00 0.00 0.00 90 1012.7
20260509112537 50 0.0 1.7 0.00 0.00 0.00 91 1012.6
20260509111537 49 338 0.9 1.7 0.00 0.00 0.00 91 1012.6
20260509110517 48 0.0 0.9 0.00 0.00 0.00 91 1012.6
20260509105517 48 0.0 1.7 0.00 0.00 0.00 90 1012.7
20260509104557 48 0.0 0.9 0.00 0.00 0.00 89 1012.9
20260509103517 49 0.0 1.7 0.00 0.00 0.00 90 1013.1
20260509102517 48 0.0 0.9 0.00 0.00 0.00 90 1013.3
20260509101557 49 0.0 0.0 0.00 0.00 0.00 89 1012.8
20260509100517 49 0.0 1.7 0.00 0.00 0.00 90 1012.8
20260509095517 48 0.0 0.0 0.00 0.00 0.00 89 1012.6
20260509094537 48 0.0 0.9 0.00 0.00 0.00 88 1012.5
20260509093517 48 0.0 0.0 0.00 0.00 0.00 89 1012.4
20260509092517 48 0.0 0.0 0.00 0.00 0.00 89 1012.4
20260509091517 48 0.0 0.0 0.00 0.00 0.00 88 1012.4
20260509090517 48 0.0 0.0 0.00 0.00 0.00 88 1012.4
20260509085516 48 0.0 1.7 0.00 0.00 0.00 88 1012.4
20260509084516 48 0.0 0.9 0.00 0.00 0.00 87 1012.2
20260509083517 48 0.0 0.9 0.00 0.00 0.00 86 1012.1
20260509082516 49 0.0 0.0 0.00 0.00 0.00 86 1012.2